x

Buoy F01 - West Penobscot Bay (44033) Wave Buoy

2:04 - Tue 21st Oct 2014 All times are EDT. -4 hours from GMT.

  • Sig Wave height 1.6ft
  • Peak Period 5s
  • Wind
    13mph, 16mph gusts
  • Sea Temp 55°f
  • Air Temp 56°f
  • Sea Pressure 1015.7mb
  • Buoy F01 - West Penobscot Bay
  • Buoy F01 - West Penobscot Bay

More Historic Weather Station data

Upgrade to MSW Pro to gain access to the past 30 days of data for over 8000 Wavebouys and Weather Stations around the globe.

Join Pro

Comparision Forecast

View Surf forecast
   
mar. 10/21 2:04 1.6ft 5s 13 16 mph 1015.7mb 55f 56f
1:04 1.6ft 6s 11 13 mph 1016.3mb 55f 56f
12:04 1.3ft 5s 11 13 mph 1016.9mb 55f 55f
11:04 1.6ft 5s 9 11 mph 1017.1mb 55f 55f
10:04 1.6ft 5s 11 13 mph 1016.9mb 55f 55f
9:04 1.6ft 5s 11 13 mph 1016.5mb 55f 54f
8:04 1.3ft 5s 7 9 mph 1016.4mb 55f 53f
7:04 1.6ft 8s 7 9 mph 1016mb 55f 53f
6:04 1.3ft 5s 4 7 mph 1016.1mb 55f 53f
5:04 1.3ft 5s 4
mph
1015.9mb 55f 52f
4:04 1.3ft 5s 4 7 mph 1015.4mb 55f 52f
2:04 1ft 5s 4 7 mph 1015.7mb 55f 50f
1:04 1.3ft 5s 9
mph
1015.3mb 55f 51f
12:04 1.3ft 5s 9 11 mph 1014.8mb 55f 52f
lun. 10/20 11:04 1.3ft 6s 9 11 mph 1014.4mb 55f 52f
10:04 1.3ft 5s 9
mph
1014.1mb 55f 53f
9:04 1.3ft 4s 11 13 mph 1013.7mb 55f 53f
8:04 1.3ft 4s 13 16 mph 1013.6mb 55f 53f
7:04 1.3ft 4s 13 18 mph 1013.6mb 55f 51f
6:04 1.3ft 4s 16 18 mph 1013mb 55f 50f
5:04 1.6ft 3s 16 20 mph 1012.6mb 55f 50f
4:04 1.6ft 4s 16 20 mph 1012.2mb 56f 50f
3:04 1.6ft 3s 18 22 mph 1012.4mb 55f 49f
2:04 1.6ft 4s 18 20 mph 1012.4mb 55f 47f
1:04 1ft 3s 16 20 mph 1012.7mb 55f 47f
12:04 1ft 2s 11 16 mph 1013.4mb 55f 46f
11:04 1ft 2s 11 13 mph 1013.5mb 55f 46f
10:04 0.7ft  -  11 18 mph 1013.8mb 55f 44f
9:04 1ft  -  13 18 mph 1013.5mb 55f 42f
8:04 0.7ft  -  13 18 mph 1013.4mb 55f 42f
7:04 0.7ft  -  13 18 mph 1012.2mb 55f 42f
6:04 1ft 3s 13 18 mph 1011.6mb 55f 43f
5:04 1ft 3s 16 18 mph 1011.4mb 55f 43f
4:04 1.3ft 3s 16 20 mph 1010.7mb 55f 43f
3:04 1ft 2s 18 20 mph 1010.4mb 55f 43f
2:04  -   -  18 22 mph 1010mb 55f 44f
1:04 2ft 11s 16 20 mph 1009.5mb 55f 45f
12:04 1.3ft 2s 16 20 mph 1009.1mb 56f 45f
dim. 10/19 11:04 1.3ft 2s 18 20 mph 1008.8mb 56f 46f
10:04 1.3ft 2s 13 18 mph 1008.7mb 56f 46f
9:04 1.3ft 2s 18 22 mph 1008.5mb 55f 47f
8:04 1.6ft 3s 16 18 mph 1008.1mb 56f 47f
7:04 2.5ft 4s 18 20 mph 1007.7mb 56f 47f
6:04 2.5ft 3s 20 25 mph 1007.5mb 56f 48f
5:04 2ft 3s 22 27 mph 1006.7mb 56f 50f
4:04 1.6ft 3s 18 20 mph 1006.3mb 56f 51f
3:04 2ft 3s 18 20 mph 1005.6mb 56f 52f
2:04 1.6ft 3s 18 22 mph 1005mb 56f 51f
1:04 1.6ft 3s 13 18 mph 1004.9mb 56f 49f
12:04 2.5ft 3s 16 20 mph 1005.4mb 56f 47f
11:04 2ft 3s 20 27 mph 1005.5mb 56f 46f
10:04 2ft 3s 20 22 mph 1005.6mb 56f 46f
9:04 2.5ft 3s 20 25 mph 1004.9mb 56f 47f
8:04 2ft 3s 22 27 mph 1003.9mb 56f 48f
7:04 2ft 3s 22 27 mph 1002.4mb 56f 49f
6:04 2.5ft 8s 18 20 mph 1001.5mb 56f 51f
5:04 1.6ft 5s 16 18 mph 1001mb 56f 53f
4:04 3ft 8s 18 20 mph 1000mb 56f 54f
3:04 2.5ft 8s 9 11 mph 999.3mb 56f 54f
2:04 2.5ft 11s 9 11 mph 998.9mb 56f 54f
1:04  -   -  9
mph
998.4mb 56f 55f
12:04 3ft 11s 9
mph
998mb 56f 56f
sam. 10/18 11:04 1ft 4s 9 11 mph 997.7mb 56f 56f
10:04 3ft 11s 7 9 mph 997.6mb 56f 57f
9:04 3ft 11s 7
mph
997.5mb 56f 57f
8:04 3.5ft 11s 4 7 mph 997.2mb 56f 58f
7:04 3.5ft 8s 7 9 mph 997.5mb 56f 58f
6:04 3.5ft 11s 7 9 mph 997.5mb 56f 58f
5:04 4ft 11s 9 11 mph 997.5mb 56f 58f
4:04 3.5ft 8s 7 9 mph 998.2mb 56f 57f
3:04 2.5ft 6s 9 11 mph 998.7mb 56f 57f
2:04 4ft 11s 9 13 mph 999mb 56f 58f
1:04 3.5ft 11s 13 16 mph 999.5mb 56f 58f
12:04 3ft 6s 9 11 mph 1000.3mb 56f 58f
11:04 3.5ft 11s 11 13 mph 1000.6mb 56f 58f
10:04 4ft 11s 11 13 mph 1000.8mb 56f 58f
9:04 4ft 11s 9 11 mph 1001.5mb 56f 57f
8:04 3ft 8s 9 11 mph 1001.4mb 56f 57f
7:04 4ft 11s 9
mph
1001.3mb 56f 57f
6:04 3.5ft 8s 9 13 mph 1001.5mb 56f 57f
5:04 4.5ft 11s 13 16 mph 1001.7mb 56f 57f
4:04 4.5ft 8s 9 11 mph 1002mb 56f 57f
3:04 4ft 11s 9 11 mph 1002.1mb 56f 57f
2:04 4.5ft 11s 9 11 mph 1002.6mb 56f 57f
1:04 3.5ft 11s 9 11 mph 1003mb 56f 57f
12:04 4.5ft 11s 11
mph
1003.1mb 56f 59f
ven. 10/17 11:04  -   -  13
mph
1003.1mb 56f 59f
10:04 4ft 11s 13 16 mph 1003.4mb 56f 59f
9:04 4.5ft 11s 9
mph
1003.3mb 56f 58f
8:04 3.5ft 5s 13 16 mph 1002.7mb 56f 59f